Tracking 23099 objects as of 14-May-2021
HD Live streaming from Space Station
objects crossing your sky now

SL-3 R/B

Track SL-3 R/B now!
10-day predictions


NORAD ID: 6257
Int'l Code: 1972-085B
Perigee: 836.5 km
Apogee: 920.8 km
Inclination: 81.3 °
Period: 102.4 minutes
Semi major axis: 7249 km
RCS: 6.5788 m2 (large)
Launch date: October 26, 1972
Source: Commonwealth of Independent States (former USSR) (CIS)
Launch site: PLESETSK MISSILE AND SPACE COMPLEX (PKMTR)

Note: This is a ROCKET BODY
aabbcc
Your satellite tracking list
Your tracking list is empty




NASA's NSSDC Master Catalog

Two Line Element Set (TLE):
1  6257U 72085B   21133.72247288 -.00000009  00000-0 -13275-4 0  9995
2  6257  81.2618 221.2410 0058131  76.0904 284.6721 14.06467376490001
Source of the keplerian elements: AFSPC